Regional Weather Roundup
Issued by NWS

Home | Current Version | Previous Version | Text Only | Print | Product List | Glossary Off
Versions: 1 2 3 4 5 6 7 8 9 10 11 12 13 14 15 16 17 18 19 20 21 22 23 24 25 26 27 28 29 30 31 32 33 34 35 36 37 38 39 40 41 42 43 44 45 46 47 48 49 50

000
ASUS43 KDTX 232210
RWRMI
MICHIGAN HOURLY REGIONAL WEATHER ROUNDUP
NATIONAL WEATHER SERVICE DETROIT/PONTIAC MI
600 PM EDT WED APR 23 2014

NOTE: "FAIR" INDICATES FEW OR NO CLOUDS BELOW 12,000 FEET WITH NO
SIGNIFICANT WEATHER AND/OR OBSTRUCTION TO VISIBILITY.

MIZ047>049-052>055-059>063-066>070-074>076-081>083-232300-
SOUTHEAST LOWER MICHIGAN

CITY           SKY/WX    TMP DP  RH WIND       PRES   REMARKS
ADRIAN         SUNNY     56  20  24 VRB6      30.08S
ALMA           MOSUNNY   55  11  17 CALM      30.08F
ANN ARBOR      SUNNY     56  17  21 N9        30.08S
BAD AXE        MOSUNNY   46  10  23 N5        30.11S
DETROIT CITY   SUNNY     57  17  21 N13       30.08S
DETROIT        MOSUNNY   56  20  24 N8        30.08S
FLINT          SUNNY     53  10  18 NW5       30.10F
GROSSE ILE     SUNNY     55  19  24 NE6       30.06S
HILLSDALE      SUNNY     56  17  21 NW9       30.07S
HOWELL         SUNNY     52  11  19 N8        30.08F

CITY           SKY/WX    TMP DP  RH WIND       PRES   REMARKS
JACKSON        SUNNY     55  17  22 N8        30.08S
LAMBERTVILLE   SUNNY     55  23  28 N5        30.08S
LANSING        MOSUNNY   55  17  22 N9        30.09F
LAPEER         NOT AVBL
MASON          SUNNY     53  21  28 NW8       30.08F
MONROE         SUNNY     55  28  35 S3        30.06F
MT. CLEMENS    MOSUNNY   52  17  25 N10G18    30.07S
PONTIAC        PTSUNNY   51  15  23 N10       30.08S
PORT HOPE        N/A     39  19  44 CALM      30.11S
PORT HURON     SUNNY     43  23  45 NE10      30.11S
TRI CITIES     SUNNY     56  17  21 E9        30.08F
YPSILANTI      SUNNY     58  17  20 N10       30.08S
$$
MIZ043>046-050>051-056>058-064>065-071>073-077>080-232300-
SOUTHWEST LOWER MICHIGAN

CITY           SKY/WX    TMP DP  RH WIND       PRES   REMARKS
BATTLE CREEK   MOSUNNY   56  20  24 N3        30.08F
BENTON HARBOR  MOSUNNY   41  27  57 N9        30.12F
BIG RAPIDS     MOSUNNY   55  12  18 NE7       30.06F
COLDWATER      SUNNY     55  16  21 NE7       30.08S
HOLLAND        PTSUNNY   47  25  42 NW9       30.11F
GRAND RAPIDS   CLOUDY    54  30  40 W14       30.08F
KALAMAZOO      MOSUNNY   57  21  24 N3        30.07F
MARSHALL       SUNNY     54  19  25 NE5       30.07F
MUSKEGON       CLOUDY    47  19  33 W7        30.12F
$$
MIZ016>042-232300-
NORTHERN LOWER MICHIGAN

CITY           SKY/WX    TMP DP  RH WIND       PRES   REMARKS
ALPENA         SUNNY     51  13  21 N12       30.09F
BEAVER ISLAND  SUNNY     44  13  28 W6        30.14F
BELLAIRE       MOSUNNY   49  17  27 N6        30.12S
CADILLAC       SUNNY     49   8  18 NW5       30.09S
CHARLEVOIX     MOSUNNY   43  17  34 W7        30.17S
FRANKFORT      PTCLDY    44  17  33 CALM      30.13F
GAYLORD        SUNNY     48  15  26 NW8       30.09S
GRAYLING       SUNNY     51  14  23 W10G16    30.09S
HARBOR SPRINGS SUNNY     42  23  48 SW6       30.11S
HOUGHTON LAKE  SUNNY     54  19  25 VRB5      30.08S
MANISTEE       PTSUNNY   45  19  36 N13       30.12F
OSCODA         MOSUNNY   46  15  29 E7        30.09S
PELLSTON       SUNNY     49  16  26 W13       30.12F
TRAVERSE CITY  PTSUNNY   46  17  31 NE7       30.13S
$$
MIZ007>008-015-232300-
EASTERN UPPER MICHIGAN

CITY           SKY/WX    TMP DP  RH WIND       PRES   REMARKS
KINROSS        SUNNY     45  18  33 NW16      30.10F
MACKINAC ISLAN SUNNY     43  25  48 W3        30.11F
NEWBERRY       SUNNY     44  24  45 NW7       30.12F
S. S. MARIE    SUNNY     44  22  41 NW15G22   30.11F
$$
MIZ004>006-011>014-085-232300-
CENTRAL UPPER MICHIGAN

CITY           SKY/WX    TMP DP  RH WIND       PRES   REMARKS
MANISTIQUE     SUNNY     43  24  45 S9        30.12F
ESCANABA       PTSUNNY   46  16  29 S9        30.12F
MENOMINEE      PTSUNNY   46  14  27 SE10      30.14S
SAWYER-GWINN   SUNNY     48  18  29 E5        30.11F
$$
MIZ001>003-009>011-084-232300-
WESTERN UPPER MICHIGAN

CITY           SKY/WX    TMP DP  RH WIND       PRES   REMARKS
IRON MOUNTAIN  MOSUNNY   55  15  20 S6        30.07F
HOUGHTON       PTSUNNY   42  21  43 E9        30.10F
COPPER HARBOR    N/A     45  20  36 VRB5      30.12F
IRONWOOD       CLOUDY    54  21  28 SE7       30.01F
$$

ABBREVIATIONS USED IN REMARKS
   TC - TEMPERATURE IN CELSIUS
  WCI - WIND CHILL INDEX
   HX - HEAT INDEX
  VSB - VISIBILITY




USA.gov is the U.S. government's official web portal to all federal, state and local government web resources and services.